Weather History for Dayton, OH

Change the Weather History Date:

Tuesday, January 14, 2014

  Actual Average Record
Temperature  
Mean Temperature 37 °F 27 °F  
Max Temperature 46 °F 34 °F 68 °F (1932)
Min Temperature 27 °F 20 °F -2 °F (1964)
Degree Days  
Heating Degree Days 28 38  
Month to date heating degree days 540 526  
Since 1 July heating degree days 2659 2685  
Cooling Degree Days 0 0  
Month to date cooling degree days 0 0  
Year to date cooling degree days 0 0  
Moisture  
Dew Point 29 °F    
Average Humidity 67    
Maximum Humidity 92    
Minimum Humidity 41    
Precipitation  
Precipitation T in 0.09 in 2.42 in (1937)
Month to date precipitation 1.96 1.32  
Year to date precipitation 1.96 1.32  
Snow  
Snow 0.00 in 0.30 in 3.90 in (1917)
Month to date snowfall 8.1 3.5  
Since 1 July snowfall 22.7 9.0  
Snow Depth 0.00 in    
Sea Level Pressure  
Sea Level Pressure 29.82 in    
Wind  
Wind Speed 11 mph (WSW)    
Max Wind Speed 25 mph    
Max Gust Speed 35 mph    
Visibility 8 miles    
Events Rain    
T = Trace of Precipitation, MM = Missing Value Source: NWS Daily Summary

Daily Weather History Graph

Daily Weather History Graph

Search for Another Location

Airport:

Trip Planner

Search our weather history database for the weather conditions in past years. The results will help you decide how hot, cold, wet, or windy it might be!

Date:

Astronomy

Jan. 14, 2014 Rise Set
Actual Time 7:56 AM EST 5:35 PM EST
Civil Twilight 7:27 AM EST 6:05 PM EST
Nautical Twilight 6:53 AM EST 6:38 PM EST
Astronomical Twilight 6:21 AM EST 7:10 PM EST
Moon 4:39 PM EST (1/14) 6:30 AM EST (1/14)
Length of Visible Light 10h 37m
Length of Day
9h 38m
Waxing Gibbous, 98% of the Moon is Illuminated
Jan 14
Waxing Gibbous
Jan 15
Full
Jan 24
Last Quarter
Jan 30
New
Feb 6
First Quarter

Hourly Weather History & Observations

Time (EST) Temp. Windchill Dew Point Humidity Pressure Visibility Wind Dir Wind Speed Gust Speed Precip Events Conditions
12:56 AM 41.0 °F 35.8 °F 37.0 °F 86% 29.76 in 10.0 mi WNW 8.1 mph - N/A   Mostly Cloudy
1:56 AM 37.0 °F 33.3 °F 34.0 °F 89% 29.76 in 9.0 mi West 4.6 mph - N/A   Mostly Cloudy
2:56 AM 37.0 °F 31.0 °F 34.0 °F 89% 29.79 in 7.0 mi WNW 8.1 mph - N/A   Mostly Cloudy
3:03 AM 37.4 °F 30.8 °F 33.8 °F 87% 29.78 in 7.0 mi WNW 9.2 mph - N/A   Overcast
3:44 AM 35.6 °F 28.6 °F 33.8 °F 93% 29.78 in 7.0 mi West 9.2 mph - N/A   Overcast
3:56 AM 36.0 °F 30.3 °F 33.1 °F 89% 29.80 in 7.0 mi WNW 6.9 mph - N/A   Overcast
4:56 AM 34.0 °F 27.2 °F 30.0 °F 85% 29.81 in 8.0 mi WNW 8.1 mph - N/A   Overcast
5:13 AM 33.8 °F 25.3 °F 28.4 °F 81% 29.80 in 7.0 mi WNW 11.5 mph - N/A   Overcast
5:56 AM 33.1 °F 25.5 °F 28.9 °F 85% 29.83 in 7.0 mi WNW 9.2 mph - N/A   Overcast
6:56 AM 30.9 °F 25.2 °F 27.0 °F 85% 29.84 in 7.0 mi West 5.8 mph - N/A   Mostly Cloudy
7:24 AM 28.4 °F 24.6 °F 26.6 °F 93% 29.82 in 6.0 mi WSW 3.5 mph - N/A   Mostly Cloudy
7:46 AM 28.4 °F 23.3 °F 26.6 °F 93% 29.82 in 6.0 mi SW 4.6 mph - N/A   Scattered Clouds
7:56 AM 30.0 °F 25.2 °F 26.1 °F 85% 29.84 in 6.0 mi SSW 4.6 mph - N/A   Scattered Clouds
8:56 AM 28.9 °F 25.2 °F 27.0 °F 92% 29.87 in 5.0 mi WSW 3.5 mph - N/A   Clear
9:56 AM 32.0 °F 27.5 °F 28.0 °F 85% 29.87 in 5.0 mi SSW 4.6 mph - N/A   Scattered Clouds
10:56 AM 35.1 °F 28.6 °F 28.9 °F 78% 29.87 in 6.0 mi South 8.1 mph - N/A   Haze
11:56 AM 37.9 °F 30.5 °F 27.0 °F 65% 29.83 in 9.0 mi South 11.5 mph - N/A   Clear
12:56 PM 41.0 °F 34.7 °F 27.0 °F 57% 29.82 in 10.0 mi SSW 10.4 mph - N/A   Clear
1:56 PM 44.1 °F 38.1 °F 23.0 °F 43% 29.79 in 10.0 mi SSW 11.5 mph - N/A   Partly Cloudy
2:56 PM 46.0 °F 39.6 °F 25.0 °F 44% 29.76 in 10.0 mi South 15.0 mph 21.9 mph N/A   Partly Cloudy
3:56 PM 46.0 °F 39.9 °F 26.1 °F 46% 29.75 in 10.0 mi South 13.8 mph 20.7 mph N/A   Mostly Cloudy
4:56 PM 45.0 °F 38.9 °F 26.1 °F 48% 29.78 in 10.0 mi SSW 12.7 mph - N/A   Mostly Cloudy
5:56 PM 44.1 °F 39.0 °F 28.9 °F 55% 29.80 in 10.0 mi SW 9.2 mph - 0.00 in Rain Light Rain
6:54 PM 41.0 °F 32.8 °F 35.6 °F 81% 29.80 in 10.0 mi WSW 16.1 mph - 0.00 in Rain Light Rain
6:56 PM 41.0 °F 33.1 °F 35.1 °F 79% 29.82 in 10.0 mi WSW 15.0 mph 24.2 mph 0.00 in Rain Light Rain
7:56 PM 39.0 °F 29.9 °F 34.0 °F 82% 29.86 in 10.0 mi West 17.3 mph - 0.00 in   Overcast
8:20 PM 37.4 °F 27.8 °F 33.8 °F 87% 29.85 in 10.0 mi West 17.3 mph - N/A   Overcast
8:51 PM 35.6 °F 25.2 °F 30.2 °F 81% 29.86 in 10.0 mi West 18.4 mph - N/A   Overcast
8:56 PM 36.0 °F 25.6 °F 30.0 °F 79% 29.89 in 10.0 mi West 18.4 mph - N/A   Overcast
9:56 PM 34.0 °F 24.2 °F 26.1 °F 73% 29.91 in 10.0 mi WNW 15.0 mph - N/A   Overcast
10:17 PM 33.8 °F 23.5 °F 26.6 °F 75% 29.88 in 10.0 mi West 16.1 mph 27.6 mph N/A   Overcast
10:56 PM 34.0 °F 23.8 °F 25.0 °F 70% 29.90 in 10.0 mi West 16.1 mph - N/A   Mostly Cloudy
11:56 PM 30.9 °F 17.2 °F 19.9 °F 64% 29.91 in 10.0 mi West 25.3 mph 34.5 mph N/A   Mostly Cloudy